| time (UTC) | temp C | wind direction | speed KPH | gust KPH | rain 1hr cm | rain 24hr cm | rain mn cm | humidity % | barometer mb |
| 20260504151101 | 14 | 270 | 3.2 | 12.9 | 0.00 | 0.00 | 0.00 | 54 | 1006.5 |
| 20260504141040 | 14 | 225 | 3.2 | 11.3 | 0.00 | 0.00 | 0.00 | 54 | 1006.8 |
| 20260504081020 | 5 | 0.0 | 3.2 | 0.00 | 0.03 | 0.00 | 79 | 1008.1 | |
| 20260504050020 | 0 | 0.0 | 4.8 | 0.00 | 0.03 | 0.00 | 87 | 1007.8 | |
| 20260504045020 | 0 | 0.0 | 0.0 | 0.00 | 0.03 | 0.00 | 87 | 1007.9 | |
| 20260504044016 | 0 | 0.0 | 0.0 | 0.00 | 0.03 | 0.00 | 86 | 1008.0 | |
| 20260504043040 | 0 | 0.0 | 0.0 | 0.00 | 0.03 | 0.00 | 88 | 1008.0 | |
| 20260504042020 | 0 | 0.0 | 0.0 | 0.00 | 0.03 | 0.00 | 87 | 1008.1 | |
| 20260504041100 | 0 | 0.0 | 0.0 | 0.00 | 0.03 | 0.00 | 86 | 1007.9 | |
| 20260504040040 | 0 | 0.0 | 0.0 | 0.00 | 0.03 | 0.03 | 85 | 1007.9 | |
| 20260504035017 | 0 | 0.0 | 0.0 | 0.00 | 0.03 | 0.03 | 84 | 1007.8 | |
| 20260504034021 | 0 | 0.0 | 0.0 | 0.00 | 0.03 | 0.03 | 82 | 1007.8 | |
| 20260504033023 | 1 | 0.0 | 0.0 | 0.00 | 0.03 | 0.03 | 81 | 1007.9 | |
| 20260504032021 | 1 | 0.0 | 6.4 | 0.00 | 0.03 | 0.03 | 80 | 1007.8 | |
| 20260504031021 | 1 | 0.0 | 0.0 | 0.00 | 0.03 | 0.03 | 80 | 1007.9 | |
| 20260504030022 | 1 | 0.0 | 0.0 | 0.00 | 0.03 | 0.03 | 79 | 1007.8 | |
| 20260504025017 | 2 | 0.0 | 0.0 | 0.00 | 0.03 | 0.03 | 77 | 1007.8 | |
| 20260504024017 | 2 | 0.0 | 0.0 | 0.00 | 0.03 | 0.03 | 76 | 1007.8 | |
| 20260504023021 | 2 | 0.0 | 0.0 | 0.00 | 0.03 | 0.03 | 75 | 1007.9 | |
| 20260504022021 | 2 | 0.0 | 0.0 | 0.00 | 0.03 | 0.03 | 75 | 1008.0 | |
| 20260504021021 | 2 | 0.0 | 0.0 | 0.00 | 0.03 | 0.03 | 74 | 1008.0 | |
| 20260504020041 | 3 | 0.0 | 0.0 | 0.00 | 0.03 | 0.03 | 74 | 1007.9 | |
| 20260504015021 | 3 | 0.0 | 0.0 | 0.00 | 0.03 | 0.03 | 74 | 1008.0 | |
| 20260504014017 | 3 | 0.0 | 0.0 | 0.00 | 0.03 | 0.03 | 74 | 1007.8 | |
| 20260504013021 | 3 | 0.0 | 0.0 | 0.00 | 0.03 | 0.03 | 75 | 1007.8 | |
| 20260504012021 | 3 | 0.0 | 0.0 | 0.00 | 0.03 | 0.03 | 73 | 1007.7 | |
| 20260504011021 | 3 | 293 | 1.6 | 4.8 | 0.00 | 0.03 | 0.03 | 72 | 1007.5 |
| 20260504010022 | 4 | 0.0 | 1.6 | 0.00 | 0.03 | 0.03 | 70 | 1007.5 | |
| 20260504005021 | 4 | 0.0 | 0.0 | 0.00 | 0.03 | 0.03 | 71 | 1007.4 | |
| 20260504004021 | 5 | 0.0 | 0.0 | 0.00 | 0.05 | 0.03 | 67 | 1007.4 | |
| 20260504003017 | 5 | 0.0 | 0.0 | 0.00 | 0.05 | 0.03 | 68 | 1007.4 | |
| 20260504002041 | 6 | 0.0 | 0.0 | 0.00 | 0.08 | 0.03 | 63 | 1007.3 | |
| 20260504001021 | 6 | 0.0 | 0.0 | 0.00 | 0.08 | 0.03 | 60 | 1007.2 | |
| 20260504000021 | 7 | 0.0 | 0.0 | 0.00 | 0.10 | 0.03 | 59 | 1007.1 | |
| 20260503235021 | 7 | 0.0 | 1.6 | 0.00 | 0.13 | 0.03 | 56 | 1007.1 | |
| 20260503234019 | 7 | 0.0 | 3.2 | 0.00 | 0.28 | 0.03 | 54 | 1007.0 | |
| 20260503233021 | 8 | 0.0 | 8.0 | 0.00 | 0.28 | 0.03 | 53 | 1007.0 | |
| 20260503232037 | 8 | 0.0 | 3.2 | 0.00 | 0.28 | 0.03 | 54 | 1006.9 | |
| 20260503231041 | 8 | 293 | 1.6 | 4.8 | 0.00 | 0.28 | 0.03 | 53 | 1006.9 |
| 20260503230022 | 8 | 315 | 1.6 | 8.0 | 0.00 | 0.28 | 0.03 | 51 | 1006.9 |
| 20260503225021 | 8 | 0.0 | 4.8 | 0.00 | 0.28 | 0.03 | 52 | 1006.9 | |
| 20260503224021 | 8 | 293 | 3.2 | 14.5 | 0.00 | 0.28 | 0.03 | 51 | 1006.8 |
| 20260503223021 | 9 | 315 | 4.8 | 16.1 | 0.00 | 0.28 | 0.03 | 51 | 1006.8 |
| 20260503222021 | 9 | 315 | 1.6 | 8.0 | 0.00 | 0.28 | 0.03 | 52 | 1006.8 |
| 20260503221037 | 8 | 293 | 4.8 | 14.5 | 0.00 | 0.28 | 0.03 | 52 | 1006.7 |
| 20260503220021 | 8 | 338 | 3.2 | 11.3 | 0.00 | 0.28 | 0.03 | 54 | 1006.7 |
| 20260503215042 | 9 | 293 | 1.6 | 6.4 | 0.00 | 0.28 | 0.03 | 53 | 1006.6 |
| 20260503214021 | 8 | 270 | 1.6 | 8.0 | 0.00 | 0.28 | 0.03 | 55 | 1006.7 |
| 20260503213042 | 8 | 315 | 1.6 | 11.3 | 0.00 | 0.28 | 0.03 | 53 | 1006.7 |
| 20260503212021 | 8 | 293 | 1.6 | 8.0 | 0.00 | 0.28 | 0.03 | 53 | 1006.8 |
| 20260503211017 | 9 | 315 | 4.8 | 12.9 | 0.00 | 0.28 | 0.03 | 50 | 1006.6 |
| 20260503210017 | 9 | 293 | 3.2 | 12.9 | 0.00 | 0.28 | 0.03 | 52 | 1006.4 |
| 20260503205021 | 8 | 293 | 3.2 | 12.9 | 0.00 | 0.28 | 0.03 | 51 | 1006.3 |
| 20260503204021 | 8 | 293 | 4.8 | 16.1 | 0.00 | 0.28 | 0.03 | 51 | 1006.4 |
| 20260503203021 | 8 | 293 | 4.8 | 16.1 | 0.00 | 0.28 | 0.03 | 52 | 1006.3 |
| 20260503202021 | 9 | 293 | 3.2 | 12.9 | 0.00 | 0.28 | 0.03 | 52 | 1006.3 |
| 20260503201021 | 9 | 293 | 3.2 | 9.7 | 0.00 | 0.28 | 0.03 | 52 | 1006.3 |
| 20260503200021 | 9 | 293 | 3.2 | 14.5 | 0.00 | 0.28 | 0.03 | 51 | 1006.2 |
| 20260503195038 | 9 | 270 | 1.6 | 4.8 | 0.00 | 0.28 | 0.03 | 52 | 1006.3 |
| 20260503194021 | 9 | 315 | 1.6 | 12.9 | 0.00 | 0.28 | 0.03 | 50 | 1006.3 |
| 20260503193021 | 9 | 293 | 1.6 | 12.9 | 0.00 | 0.28 | 0.03 | 48 | 1006.4 |
| 20260503192021 | 10 | 293 | 3.2 | 12.9 | 0.00 | 0.28 | 0.03 | 49 | 1006.3 |
| 20260503191021 | 9 | 293 | 3.2 | 11.3 | 0.00 | 0.28 | 0.03 | 50 | 1006.4 |
| 20260503190021 | 8 | 293 | 1.6 | 6.4 | 0.00 | 0.28 | 0.03 | 52 | 1006.4 |
| 20260503185017 | 8 | 293 | 3.2 | 14.5 | 0.00 | 0.33 | 0.03 | 53 | 1006.4 |
| 20260503184021 | 8 | 315 | 1.6 | 11.3 | 0.00 | 0.33 | 0.03 | 53 | 1006.5 |
| 20260503183021 | 9 | 293 | 4.8 | 11.3 | 0.00 | 0.33 | 0.03 | 50 | 1006.4 |
| 20260503182021 | 9 | 293 | 3.2 | 11.3 | 0.00 | 0.36 | 0.03 | 49 | 1006.3 |
| 20260503181021 | 9 | 270 | 3.2 | 11.3 | 0.00 | 0.36 | 0.03 | 52 | 1006.4 |
| 20260503180019 | 9 | 293 | 3.2 | 11.3 | 0.00 | 0.36 | 0.03 | 54 | 1006.4 |
| 20260503175021 | 9 | 338 | 1.6 | 11.3 | 0.00 | 0.36 | 0.03 | 57 | 1006.3 |
| 20260503174017 | 9 | 293 | 3.2 | 11.3 | 0.00 | 0.36 | 0.03 | 55 | 1006.3 |
| 20260503173021 | 9 | 338 | 3.2 | 14.5 | 0.00 | 0.38 | 0.03 | 59 | 1006.3 |
| 20260503172021 | 9 | 293 | 1.6 | 8.0 | 0.00 | 0.38 | 0.03 | 56 | 1006.3 |
| 20260503171021 | 8 | 293 | 3.2 | 11.3 | 0.00 | 0.41 | 0.03 | 57 | 1006.3 |